| time (UTC) | temp C | wind direction | speed KPH | gust KPH | rain 1hr cm | rain 24hr cm | rain mn cm | humidity % | barometer mb |
| 20260901161536 | 17 | 28 | 12.9 | 20.9 | 0.25 | 0.81 | 0.81 | 94 | 1016.9 |
| 20260901161016 | 17 | 84 | 12.9 | 20.9 | 0.23 | 0.79 | 0.79 | 94 | 1016.8 |
| 20260901160512 | 17 | 54 | 9.7 | 16.1 | 0.20 | 0.76 | 0.76 | 94 | 1017.0 |
| 20260901160029 | 17 | 43 | 4.8 | 12.9 | 0.18 | 0.74 | 0.74 | 94 | 1017.4 |
| 20260901155516 | 17 | 22 | 6.4 | 14.5 | 0.15 | 0.71 | 0.71 | 94 | 1017.7 |
| 20260901155017 | 17 | 36 | 4.8 | 16.1 | 0.15 | 0.71 | 0.71 | 94 | 1017.8 |
| 20260901154511 | 17 | 29 | 8.0 | 16.1 | 0.15 | 0.71 | 0.71 | 94 | 1017.8 |
| 20260901154006 | 17 | 36 | 8.0 | 16.1 | 0.13 | 0.69 | 0.69 | 94 | 1017.8 |
| 20260901153509 | 17 | 9 | 8.0 | 19.3 | 0.10 | 0.66 | 0.66 | 93 | 1017.7 |
| 20260901153054 | 17 | 22 | 9.7 | 19.3 | 0.05 | 0.61 | 0.61 | 93 | 1017.7 |
| 20260901152517 | 17 | 25 | 9.7 | 19.3 | 0.00 | 0.56 | 0.56 | 93 | 1017.7 |
| 20260901152009 | 17 | 20 | 8.0 | 19.3 | 0.00 | 0.56 | 0.56 | 93 | 1017.7 |
| 20260901151538 | 17 | 21 | 9.7 | 19.3 | 0.00 | 0.56 | 0.56 | 93 | 1017.7 |
| 20260901151011 | 17 | 18 | 9.7 | 20.9 | 0.00 | 0.56 | 0.56 | 93 | 1017.6 |
| 20260901150512 | 17 | 43 | 12.9 | 20.9 | 0.00 | 0.56 | 0.56 | 93 | 1017.6 |
| 20260901150036 | 17 | 34 | 9.7 | 20.9 | 0.00 | 0.56 | 0.56 | 93 | 1017.6 |
| 20260901145512 | 17 | 44 | 12.9 | 20.9 | 0.00 | 0.56 | 0.56 | 93 | 1017.4 |
| 20260901145017 | 18 | 67 | 14.5 | 22.5 | 0.00 | 0.56 | 0.56 | 93 | 1017.3 |
| 20260901144540 | 18 | 24 | 12.9 | 22.5 | 0.00 | 0.56 | 0.56 | 94 | 1017.3 |
| 20260901144014 | 18 | 50 | 11.3 | 19.3 | 0.00 | 0.56 | 0.56 | 94 | 1017.2 |
| 20260901143516 | 18 | 41 | 3.2 | 17.7 | 0.00 | 0.56 | 0.56 | 94 | 1017.3 |
| 20260901143011 | 18 | 25 | 8.0 | 17.7 | 0.00 | 0.56 | 0.56 | 94 | 1017.2 |
| 20260901142506 | 18 | 18 | 8.0 | 17.7 | 0.00 | 0.56 | 0.56 | 94 | 1017.3 |
| 20260901142006 | 18 | 328 | 9.7 | 17.7 | 0.00 | 0.56 | 0.56 | 94 | 1017.3 |
| 20260901141530 | 18 | 24 | 9.7 | 17.7 | 0.00 | 0.56 | 0.56 | 94 | 1017.3 |
| 20260901141010 | 18 | 26 | 9.7 | 17.7 | 0.00 | 0.56 | 0.56 | 94 | 1017.6 |
| 20260901140520 | 18 | 40 | 8.0 | 17.7 | 0.00 | 0.56 | 0.56 | 94 | 1017.7 |
| 20260901140029 | 18 | 43 | 9.7 | 14.5 | 0.00 | 0.56 | 0.56 | 94 | 1017.8 |
| 20260901135511 | 18 | 36 | 6.4 | 14.5 | 0.00 | 0.56 | 0.56 | 95 | 1017.8 |
| 20260901135015 | 17 | 19 | 8.0 | 14.5 | 0.00 | 0.56 | 0.56 | 94 | 1017.9 |
| 20260901134529 | 18 | 33 | 6.4 | 9.7 | 0.00 | 0.56 | 0.56 | 95 | 1017.9 |
| 20260901134014 | 17 | 337 | 6.4 | 11.3 | 0.00 | 0.56 | 0.56 | 94 | 1017.8 |
| 20260901133516 | 17 | 61 | 4.8 | 11.3 | 0.00 | 0.56 | 0.56 | 94 | 1017.8 |
| 20260901133032 | 17 | 298 | 3.2 | 11.3 | 0.00 | 0.56 | 0.56 | 94 | 1017.9 |
| 20260901132515 | 17 | 9 | 1.6 | 12.9 | 0.00 | 0.56 | 0.56 | 94 | 1017.9 |
| 20260901132022 | 17 | 24 | 4.8 | 12.9 | 0.00 | 0.56 | 0.56 | 94 | 1018.0 |
| 20260901131627 | 17 | 19 | 4.8 | 12.9 | 0.00 | 0.56 | 0.56 | 94 | 1018.0 |
| 20260901131009 | 17 | 26 | 6.4 | 12.9 | 0.00 | 0.56 | 0.56 | 94 | 1017.9 |
| 20260901130511 | 17 | 46 | 8.0 | 12.9 | 0.03 | 0.56 | 0.56 | 94 | 1018.0 |
| 20260901130023 | 17 | 327 | 6.4 | 14.5 | 0.03 | 0.56 | 0.56 | 94 | 1018.0 |
| 20260901125514 | 17 | 13 | 6.4 | 14.5 | 0.03 | 0.56 | 0.56 | 94 | 1018.0 |
| 20260901125012 | 17 | 36 | 6.4 | 12.9 | 0.03 | 0.56 | 0.56 | 94 | 1017.9 |
| 20260901124527 | 17 | 39 | 6.4 | 12.9 | 0.05 | 0.56 | 0.56 | 94 | 1018.1 |
| 20260901124014 | 17 | 47 | 4.8 | 16.1 | 0.05 | 0.56 | 0.56 | 94 | 1018.3 |
| 20260901123512 | 17 | 41 | 6.4 | 16.1 | 0.08 | 0.56 | 0.56 | 94 | 1018.3 |
| 20260901123031 | 17 | 23 | 8.0 | 16.1 | 0.10 | 0.56 | 0.56 | 94 | 1018.2 |
| 20260901122514 | 17 | 11 | 8.0 | 16.1 | 0.13 | 0.56 | 0.56 | 94 | 1018.2 |
| 20260901122015 | 17 | 26 | 6.4 | 19.3 | 0.18 | 0.56 | 0.56 | 94 | 1018.2 |
| 20260901121533 | 17 | 342 | 9.7 | 19.3 | 0.23 | 0.56 | 0.56 | 94 | 1018.1 |
| 20260901121016 | 17 | 15 | 8.0 | 19.3 | 0.25 | 0.56 | 0.56 | 94 | 1018.1 |
| 20260901120518 | 17 | 46 | 12.9 | 19.3 | 0.28 | 0.53 | 0.53 | 94 | 1018.1 |
| 20260901120021 | 17 | 25 | 8.0 | 12.9 | 0.33 | 0.53 | 0.53 | 94 | 1018.1 |
| 20260901115516 | 17 | 9 | 4.8 | 11.3 | 0.36 | 0.53 | 0.53 | 94 | 1018.2 |
| 20260901115011 | 17 | 28 | 3.2 | 11.3 | 0.38 | 0.53 | 0.53 | 94 | 1018.3 |
| 20260901114530 | 17 | 9 | 4.8 | 12.9 | 0.41 | 0.51 | 0.51 | 94 | 1018.2 |
| 20260901114014 | 17 | 28 | 4.8 | 17.7 | 0.43 | 0.51 | 0.51 | 94 | 1018.3 |
| 20260901113503 | 17 | 347 | 4.8 | 17.7 | 0.43 | 0.48 | 0.48 | 93 | 1018.4 |
| 20260901113005 | 17 | 319 | 4.8 | 16.1 | 0.43 | 0.46 | 0.46 | 93 | 1018.4 |
| 20260901112502 | 17 | 341 | 6.4 | 19.3 | 0.41 | 0.43 | 0.43 | 93 | 1018.4 |
| 20260901112004 | 18 | 19 | 8.0 | 19.3 | 0.36 | 0.38 | 0.38 | 93 | 1018.3 |
| 20260901111516 | 18 | 19 | 9.7 | 19.3 | 0.33 | 0.33 | 0.33 | 93 | 1018.0 |
| 20260901111005 | 18 | 337 | 11.3 | 19.3 | 0.30 | 0.30 | 0.30 | 94 | 1018.1 |
| 20260901110512 | 18 | 45 | 4.8 | 11.3 | 0.25 | 0.25 | 0.25 | 94 | 1018.1 |
| 20260901110014 | 18 | 36 | 4.8 | 8.0 | 0.20 | 0.20 | 0.20 | 94 | 1018.0 |
| 20260901105516 | 18 | 39 | 4.8 | 8.0 | 0.18 | 0.18 | 0.18 | 93 | 1017.9 |
| 20260901105011 | 18 | 55 | 3.2 | 6.4 | 0.15 | 0.15 | 0.15 | 93 | 1017.9 |
| 20260901104522 | 18 | 41 | 1.6 | 6.4 | 0.10 | 0.10 | 0.10 | 93 | 1017.9 |
| 20260901104012 | 18 | 19 | 3.2 | 4.8 | 0.08 | 0.08 | 0.08 | 93 | 1017.8 |
| 20260901103518 | 18 | 22 | 1.6 | 4.8 | 0.05 | 0.05 | 0.05 | 93 | 1017.7 |
| 20260901103028 | 18 | 17 | 3.2 | 4.8 | 0.03 | 0.03 | 0.03 | 93 | 1017.5 |
| 20260901102516 | 18 | 67 | 1.6 | 4.8 | 0.03 | 0.03 | 0.03 | 92 | 1017.5 |
| 20260901102016 | 18 | 61 | 0.0 | 4.8 | 0.03 | 0.03 | 0.03 | 92 | 1017.5 |
| 20260901101516 | 18 | 178 | 0.0 | 4.8 | 0.00 | 0.00 | 0.00 | 92 | 1017.4 |
| 20260901101006 | 19 | 243 | 1.6 | 4.8 | 0.00 | 0.00 | 0.00 | 92 | 1017.4 |
| 20260901100509 | 19 | 238 | 3.2 | 4.8 | 0.00 | 0.00 | 0.00 | 92 | 1017.4 |
| 20260901100015 | 18 | 221 | 0.0 | 3.2 | 0.00 | 0.00 | 0.00 | 91 | 1017.3 |
| 20260901095505 | 18 | 265 | 0.0 | 4.8 | 0.00 | 0.00 | 0.00 | 91 | 1017.3 |
| 20260901095018 | 19 | 51 | 1.6 | 4.8 | 0.00 | 0.00 | 0.00 | 91 | 1017.3 |
| 20260901094533 | 19 | 41 | 3.2 | 4.8 | 0.00 | 0.00 | 0.00 | 91 | 1017.3 |
| 20260901094012 | 19 | 46 | 1.6 | 4.8 | 0.00 | 0.00 | 0.00 | 91 | 1017.3 |
| 20260901093023 | 19 | 221 | 1.6 | 6.4 | 0.00 | 0.00 | 0.00 | 90 | 1017.3 |
| 20260901092510 | 19 | 221 | 3.2 | 4.8 | 0.00 | 0.00 | 0.00 | 90 | 1017.3 |
| 20260901092014 | 19 | 200 | 3.2 | 4.8 | 0.00 | 0.00 | 0.00 | 90 | 1017.3 |
| 20260901091547 | 19 | 205 | 1.6 | 6.4 | 0.00 | 0.00 | 0.00 | 90 | 1017.5 |
| 20260901091015 | 19 | 265 | 1.6 | 6.4 | 0.00 | 0.00 | 0.00 | 90 | 1017.5 |
| 20260901090517 | 19 | 217 | 3.2 | 6.4 | 0.00 | 0.00 | 0.00 | 90 | 1017.5 |
| 20260901090030 | 19 | 221 | 1.6 | 4.8 | 0.00 | 0.00 | 0.00 | 90 | 1017.5 |
| 20260901085503 | 19 | 146 | 1.6 | 6.4 | 0.00 | 0.00 | 0.00 | 90 | 1017.5 |
| 20260901085007 | 19 | 126 | 1.6 | 6.4 | 0.00 | 0.00 | 0.00 | 90 | 1017.5 |
| 20260901084530 | 19 | 190 | 1.6 | 4.8 | 0.00 | 0.00 | 0.00 | 90 | 1017.6 |
| 20260901084008 | 19 | 209 | 1.6 | 4.8 | 0.00 | 0.00 | 0.00 | 90 | 1017.6 |
| 20260901083507 | 19 | 215 | 3.2 | 6.4 | 0.00 | 0.00 | 0.00 | 90 | 1017.5 |
| 20260901083027 | 19 | 205 | 3.2 | 9.7 | 0.00 | 0.00 | 0.00 | 90 | 1017.6 |
| 20260901082512 | 19 | 254 | 3.2 | 11.3 | 0.00 | 0.00 | 0.00 | 90 | 1017.6 |
| 20260901082014 | 19 | 195 | 6.4 | 11.3 | 0.00 | 0.00 | 0.00 | 90 | 1017.5 |
| 20260901081526 | 19 | 221 | 6.4 | 11.3 | 0.00 | 0.00 | 0.00 | 90 | 1017.5 |
| 20260901081014 | 19 | 208 | 4.8 | 9.7 | 0.00 | 0.00 | 0.00 | 90 | 1017.4 |
| 20260901080514 | 19 | 217 | 6.4 | 9.7 | 0.00 | 0.00 | 0.00 | 90 | 1017.4 |
| 20260901080108 | 19 | 221 | 3.2 | 8.0 | 0.00 | 0.00 | 0.00 | 91 | 1017.3 |
| 20260901075516 | 19 | 208 | 3.2 | 9.7 | 0.00 | 0.00 | 0.00 | 91 | 1017.3 |
| 20260901075018 | 19 | 243 | 3.2 | 9.7 | 0.00 | 0.00 | 0.00 | 91 | 1017.2 |
| 20260901074534 | 19 | 225 | 3.2 | 6.4 | 0.00 | 0.00 | 0.00 | 91 | 1017.1 |
| 20260901074007 | 19 | 232 | 1.6 | 6.4 | 0.00 | 0.00 | 0.00 | 91 | 1017.2 |
| 20260901073507 | 18 | 178 | 3.2 | 6.4 | 0.00 | 0.00 | 0.00 | 91 | 1017.3 |
| 20260901073021 | 18 | 221 | 3.2 | 8.0 | 0.00 | 0.00 | 0.00 | 91 | 1017.3 |
| 20260901072510 | 18 | 221 | 3.2 | 8.0 | 0.00 | 0.00 | 0.00 | 91 | 1017.3 |
| 20260901072011 | 18 | 219 | 4.8 | 8.0 | 0.00 | 0.00 | 0.00 | 91 | 1017.5 |
| 20260901071526 | 18 | 221 | 3.2 | 6.4 | 0.00 | 0.00 | 0.00 | 91 | 1017.5 |
| 20260901071021 | 19 | 208 | 3.2 | 4.8 | 0.00 | 0.00 | 0.00 | 92 | 1017.6 |
| 20260901070511 | 18 | 238 | 0.0 | 3.2 | 0.00 | 0.00 | 0.00 | 91 | 1017.8 |
| 20260901070031 | 18 | 51 | 0.0 | 4.8 | 0.00 | 0.00 | 0.00 | 91 | 1017.9 |
| 20260901065522 | 18 | 9 | 1.6 | 6.4 | 0.00 | 0.00 | 0.00 | 91 | 1018.0 |
| 20260901065014 | 19 | 34 | 4.8 | 6.4 | 0.00 | 0.00 | 0.00 | 91 | 1018.1 |
| 20260901064534 | 19 | 34 | 0.0 | 4.8 | 0.00 | 0.00 | 0.00 | 91 | 1018.1 |
| 20260901064014 | 19 | 238 | 1.6 | 4.8 | 0.00 | 0.00 | 0.00 | 91 | 1018.0 |
| 20260901063522 | 19 | 221 | 1.6 | 4.8 | 0.00 | 0.00 | 0.00 | 91 | 1018.0 |
| 20260901063051 | 19 | 221 | 1.6 | 4.8 | 0.00 | 0.00 | 0.00 | 91 | 1018.1 |
| 20260901062510 | 19 | 265 | 0.0 | 4.8 | 0.00 | 0.00 | 0.00 | 91 | 1018.1 |
| 20260901062009 | 19 | 9 | 0.0 | 6.4 | 0.00 | 0.00 | 0.00 | 91 | 1018.1 |
| 20260901061524 | 19 | 51 | 3.2 | 6.4 | 0.00 | 0.00 | 0.00 | 91 | 1018.1 |
| 20260901061009 | 19 | 51 | 4.8 | 8.0 | 0.00 | 0.00 | 0.00 | 91 | 1018.2 |
| 20260901060512 | 19 | 57 | 4.8 | 8.0 | 0.00 | 0.00 | 0.00 | 90 | 1018.2 |
| 20260901060031 | 19 | 9 | 4.8 | 6.4 | 0.00 | 0.00 | 0.00 | 91 | 1018.2 |
| 20260901055514 | 19 | 38 | 3.2 | 6.4 | 0.00 | 0.00 | 0.00 | 91 | 1018.1 |
| 20260901055014 | 19 | 9 | 1.6 | 6.4 | 0.00 | 0.00 | 0.00 | 91 | 1018.0 |
| 20260901054535 | 19 | 9 | 0.0 | 4.8 | 0.00 | 0.00 | 0.00 | 90 | 1018.1 |
| 20260901054014 | 19 | 41 | 3.2 | 4.8 | 0.00 | 0.00 | 0.00 | 90 | 1018.1 |
| 20260901053516 | 19 | 34 | 1.6 | 4.8 | 0.00 | 0.00 | 0.00 | 90 | 1018.2 |
| 20260901053037 | 19 | 34 | 0.0 | 4.8 | 0.00 | 0.00 | 0.00 | 90 | 1018.2 |
| 20260901052519 | 19 | 9 | 0.0 | 6.4 | 0.00 | 0.00 | 0.00 | 90 | 1018.2 |
| 20260901052020 | 19 | 51 | 3.2 | 6.4 | 0.00 | 0.00 | 0.00 | 90 | 1018.2 |
| 20260901051538 | 19 | 34 | 3.2 | 6.4 | 0.00 | 0.00 | 0.00 | 90 | 1018.3 |
| 20260901051012 | 19 | 34 | 1.6 | 6.4 | 0.00 | 0.00 | 0.00 | 90 | 1018.2 |
| 20260901050510 | 19 | 41 | 3.2 | 6.4 | 0.00 | 0.00 | 0.00 | 90 | 1018.1 |
| 20260901050027 | 19 | 51 | 3.2 | 4.8 | 0.00 | 0.00 | 0.00 | 89 | 1018.1 |
| 20260901045512 | 19 | 51 | 0.0 | 1.6 | 0.00 | 0.00 | 0.00 | 89 | 1018.0 |
| 20260901045011 | 19 | 51 | 0.0 | 3.2 | 0.00 | 0.00 | 0.00 | 89 | 1018.0 |
| 20260901044527 | 19 | 51 | 0.0 | 3.2 | 0.00 | 0.00 | 0.00 | 89 | 1018.0 |
| 20260901044014 | 19 | 265 | 0.0 | 1.6 | 0.00 | 0.00 | 0.00 | 89 | 1018.0 |
| 20260901043516 | 20 | 221 | 0.0 | 1.6 | 0.00 | 0.00 | 0.00 | 88 | 1018.0 |
| 20260901043035 | 20 | 221 | 0.0 | 3.2 | 0.00 | 0.00 | 0.00 | 88 | 1018.0 |
| 20260901042516 | 20 | 265 | 0.0 | 3.2 | 0.00 | 0.00 | 0.00 | 88 | 1018.0 |
| 20260901042005 | 20 | 205 | 0.0 | 1.6 | 0.00 | 0.00 | 0.00 | 88 | 1017.9 |
| 20260901041536 | 20 | 265 | 0.0 | 3.2 | 0.00 | 0.00 | 0.00 | 88 | 1018.0 |
| 20260901041010 | 20 | 265 | 0.0 | 3.2 | 0.00 | 0.00 | 0.00 | 87 | 1018.0 |
| 20260901040516 | 20 | 265 | 0.0 | 4.8 | 0.00 | 0.00 | 0.00 | 87 | 1018.0 |
| 20260901040022 | 20 | 76 | 0.0 | 4.8 | 0.00 | 0.00 | 0.00 | 87 | 1018.0 |
| 20260901035511 | 20 | 22 | 1.6 | 3.2 | 0.00 | 0.00 | 0.00 | 87 | 1018.0 |
| 20260901035010 | 20 | 334 | 1.6 | 3.2 | 0.00 | 0.00 | 0.00 | 87 | 1018.0 |
| 20260901034529 | 20 | 9 | 0.0 | 3.2 | 0.00 | 0.00 | 0.00 | 87 | 1018.0 |
| 20260901034012 | 20 | 325 | 0.0 | 3.2 | 0.00 | 0.00 | 0.00 | 87 | 1018.0 |
| 20260901033513 | 20 | 9 | 0.0 | 6.4 | 0.00 | 0.00 | 0.00 | 87 | 1017.9 |
| 20260901033030 | 20 | 9 | 0.0 | 6.4 | 0.00 | 0.00 | 0.00 | 87 | 1018.0 |
| 20260901032515 | 20 | 229 | 3.2 | 6.4 | 0.00 | 0.00 | 0.00 | 86 | 1018.0 |
| 20260901032017 | 20 | 238 | 1.6 | 6.4 | 0.00 | 0.00 | 0.00 | 87 | 1018.1 |
| 20260901031535 | 20 | 250 | 1.6 | 8.0 | 0.00 | 0.00 | 0.00 | 86 | 1018.2 |
| 20260901031017 | 20 | 300 | 3.2 | 8.0 | 0.00 | 0.00 | 0.00 | 86 | 1018.2 |
| 20260901030506 | 20 | 247 | 3.2 | 6.4 | 0.00 | 0.00 | 0.00 | 87 | 1018.2 |
| 20260901030038 | 20 | 217 | 3.2 | 4.8 | 0.00 | 0.00 | 0.00 | 87 | 1018.2 |
| 20260901025513 | 20 | 238 | 0.0 | 3.2 | 0.00 | 0.00 | 0.00 | 87 | 1018.3 |
| 20260901025012 | 20 | 325 | 1.6 | 6.4 | 0.00 | 0.00 | 0.00 | 87 | 1018.4 |
| 20260901024531 | 20 | 265 | 0.0 | 6.4 | 0.00 | 0.00 | 0.00 | 86 | 1018.3 |
| 20260901024015 | 20 | 163 | 1.6 | 6.4 | 0.00 | 0.00 | 0.00 | 86 | 1018.4 |
| 20260901023512 | 20 | 190 | 3.2 | 8.0 | 0.00 | 0.00 | 0.00 | 86 | 1018.3 |
| 20260901023030 | 20 | 225 | 4.8 | 8.0 | 0.00 | 0.00 | 0.00 | 86 | 1018.3 |
| 20260901022514 | 20 | 238 | 3.2 | 6.4 | 0.00 | 0.00 | 0.00 | 87 | 1018.2 |
| 20260901022015 | 20 | 234 | 3.2 | 6.4 | 0.00 | 0.00 | 0.00 | 87 | 1018.3 |
| 20260901021531 | 20 | 215 | 3.2 | 4.8 | 0.00 | 0.00 | 0.00 | 86 | 1018.2 |
| 20260901021016 | 20 | 265 | 3.2 | 4.8 | 0.00 | 0.00 | 0.00 | 86 | 1018.2 |
| 20260901020517 | 20 | 229 | 3.2 | 4.8 | 0.00 | 0.00 | 0.00 | 86 | 1018.2 |
| 20260901020038 | 20 | 243 | 3.2 | 4.8 | 0.00 | 0.00 | 0.00 | 87 | 1018.2 |
| 20260901015520 | 20 | 247 | 1.6 | 4.8 | 0.00 | 0.00 | 0.00 | 86 | 1018.2 |
| 20260901015018 | 20 | 51 | 0.0 | 3.2 | 0.00 | 0.00 | 0.00 | 86 | 1018.3 |
| 20260901014524 | 20 | 178 | 0.0 | 4.8 | 0.00 | 0.00 | 0.00 | 85 | 1018.2 |
| 20260901014019 | 20 | 265 | 1.6 | 4.8 | 0.00 | 0.00 | 0.00 | 84 | 1018.3 |
| 20260901013514 | 20 | 325 | 0.0 | 4.8 | 0.00 | 0.00 | 0.00 | 85 | 1018.3 |
| 20260901013007 | 20 | 265 | 1.6 | 6.4 | 0.00 | 0.00 | 0.00 | 85 | 1018.3 |
| 20260901012502 | 20 | 212 | 1.6 | 6.4 | 0.00 | 0.00 | 0.00 | 84 | 1018.3 |
| 20260901012002 | 20 | 227 | 3.2 | 6.4 | 0.00 | 0.00 | 0.00 | 84 | 1018.3 |
| 20260901011514 | 20 | 221 | 3.2 | 6.4 | 0.00 | 0.00 | 0.00 | 83 | 1018.3 |
| 20260901011002 | 20 | 218 | 4.8 | 6.4 | 0.00 | 0.00 | 0.00 | 83 | 1018.2 |
| 20260901010506 | 20 | 247 | 3.2 | 6.4 | 0.00 | 0.00 | 0.00 | 83 | 1018.2 |
| 20260901010037 | 20 | 241 | 3.2 | 6.4 | 0.00 | 0.00 | 0.00 | 83 | 1018.3 |
| 20260901005509 | 21 | 208 | 3.2 | 6.4 | 0.00 | 0.00 | 0.00 | 83 | 1018.3 |
| 20260901005021 | 21 | 200 | 3.2 | 8.0 | 0.00 | 0.00 | 0.00 | 82 | 1018.2 |
| 20260901004523 | 20 | 215 | 3.2 | 8.0 | 0.00 | 0.00 | 0.00 | 83 | 1018.2 |
| 20260901004011 | 21 | 212 | 4.8 | 9.7 | 0.00 | 0.00 | 0.00 | 83 | 1018.2 |
| 20260901003517 | 21 | 205 | 4.8 | 9.7 | 0.00 | 0.00 | 0.00 | 82 | 1018.2 |
| 20260901003031 | 21 | 208 | 4.8 | 9.7 | 0.00 | 0.00 | 0.00 | 81 | 1018.2 |
| 20260901002517 | 21 | 219 | 4.8 | 9.7 | 0.00 | 0.00 | 0.00 | 81 | 1018.3 |
| 20260901002012 | 21 | 208 | 4.8 | 9.7 | 0.00 | 0.00 | 0.00 | 81 | 1018.2 |
| 20260901001503 | 21 | 205 | 3.2 | 8.0 | 0.00 | 0.00 | 0.00 | 80 | 1018.2 |
| 20260901001003 | 21 | 229 | 4.8 | 9.7 | 0.00 | 0.00 | 0.00 | 79 | 1018.1 |
| 20260901000503 | 21 | 225 | 4.8 | 9.7 | 0.00 | 0.00 | 0.00 | 79 | 1018.1 |
| 20260901000018 | 21 | 218 | 4.8 | 8.0 | 0.00 | 0.00 | 0.00 | 81 | 1018.1 |
| 20260831235507 | 21 | 215 | 4.8 | 8.0 | 0.00 | 0.00 | 0.00 | 81 | 1018.0 |
| 20260831235007 | 21 | 195 | 4.8 | 8.0 | 0.00 | 0.00 | 0.00 | 80 | 1018.0 |
| 20260831234518 | 21 | 221 | 4.8 | 11.3 | 0.00 | 0.00 | 0.00 | 77 | 1018.1 |
| 20260831234008 | 22 | 234 | 4.8 | 11.3 | 0.00 | 0.00 | 0.00 | 77 | 1018.1 |
| 20260831233508 | 22 | 232 | 4.8 | 11.3 | 0.00 | 0.00 | 0.00 | 76 | 1018.1 |
| 20260831233022 | 22 | 243 | 4.8 | 11.3 | 0.00 | 0.00 | 0.00 | 76 | 1018.2 |
| 20260831232509 | 22 | 212 | 4.8 | 9.7 | 0.00 | 0.00 | 0.00 | 76 | 1018.2 |
| 20260831232011 | 22 | 216 | 4.8 | 12.9 | 0.00 | 0.00 | 0.00 | 76 | 1018.3 |
| 20260831231536 | 22 | 218 | 6.4 | 12.9 | 0.00 | 0.00 | 0.00 | 78 | 1018.4 |
| 20260831231016 | 22 | 214 | 4.8 | 8.0 | 0.00 | 0.00 | 0.00 | 77 | 1018.4 |
| 20260831230517 | 22 | 221 | 3.2 | 9.7 | 0.00 | 0.00 | 0.00 | 77 | 1018.5 |
| 20260831230033 | 22 | 215 | 4.8 | 9.7 | 0.00 | 0.00 | 0.00 | 76 | 1018.5 |
| 20260831225502 | 22 | 229 | 6.4 | 9.7 | 0.00 | 0.00 | 0.00 | 74 | 1018.6 |
| 20260831225006 | 22 | 218 | 4.8 | 9.7 | 0.00 | 0.00 | 0.00 | 73 | 1018.6 |
| 20260831224533 | 22 | 219 | 6.4 | 11.3 | 0.00 | 0.00 | 0.00 | 73 | 1018.6 |
| 20260831224010 | 22 | 219 | 6.4 | 11.3 | 0.00 | 0.00 | 0.00 | 73 | 1018.6 |
| 20260831223506 | 22 | 225 | 6.4 | 11.3 | 0.00 | 0.00 | 0.00 | 73 | 1018.7 |
| 20260831223017 | 23 | 221 | 4.8 | 11.3 | 0.00 | 0.00 | 0.00 | 73 | 1018.6 |
| 20260831222511 | 23 | 227 | 6.4 | 11.3 | 0.00 | 0.00 | 0.00 | 72 | 1018.7 |
| 20260831222011 | 23 | 221 | 4.8 | 12.9 | 0.00 | 0.00 | 0.00 | 72 | 1018.7 |
| 20260831221525 | 23 | 219 | 4.8 | 12.9 | 0.00 | 0.00 | 0.00 | 71 | 1018.6 |
| 20260831221014 | 23 | 188 | 3.2 | 11.3 | 0.00 | 0.00 | 0.00 | 71 | 1018.7 |
| 20260831220514 | 23 | 225 | 8.0 | 11.3 | 0.00 | 0.00 | 0.00 | 70 | 1018.7 |
| 20260831220030 | 23 | 215 | 6.4 | 12.9 | 0.00 | 0.00 | 0.00 | 71 | 1018.6 |
| 20260831215522 | 23 | 224 | 8.0 | 16.1 | 0.00 | 0.00 | 0.00 | 70 | 1018.6 |
| 20260831215019 | 23 | 241 | 9.7 | 16.1 | 0.00 | 0.00 | 0.00 | 70 | 1018.6 |
| 20260831214543 | 23 | 212 | 9.7 | 17.7 | 0.00 | 0.00 | 0.00 | 70 | 1018.6 |
| 20260831214010 | 23 | 200 | 8.0 | 17.7 | 0.00 | 0.00 | 0.00 | 69 | 1018.6 |
| 20260831213506 | 23 | 225 | 8.0 | 14.5 | 0.00 | 0.00 | 0.00 | 69 | 1018.5 |
| 20260831213019 | 23 | 229 | 6.4 | 17.7 | 0.00 | 0.00 | 0.00 | 68 | 1018.6 |
| 20260831212506 | 23 | 207 | 8.0 | 17.7 | 0.00 | 0.00 | 0.00 | 67 | 1018.6 |
| 20260831212018 | 24 | 219 | 8.0 | 17.7 | 0.00 | 0.00 | 0.00 | 67 | 1018.6 |
| 20260831211525 | 24 | 217 | 4.8 | 20.9 | 0.00 | 0.00 | 0.00 | 66 | 1018.6 |
| 20260831211019 | 24 | 210 | 9.7 | 24.1 | 0.00 | 0.00 | 0.00 | 64 | 1018.5 |
| 20260831210514 | 25 | 188 | 11.3 | 24.1 | 0.00 | 0.00 | 0.00 | 63 | 1018.4 |
| 20260831210032 | 25 | 163 | 9.7 | 17.7 | 0.00 | 0.00 | 0.00 | 62 | 1018.4 |
| 20260831205514 | 25 | 218 | 4.8 | 16.1 | 0.00 | 0.00 | 0.00 | 66 | 1018.4 |
| 20260831205016 | 25 | 219 | 4.8 | 12.9 | 0.00 | 0.00 | 0.00 | 64 | 1018.5 |
| 20260831204537 | 25 | 196 | 6.4 | 11.3 | 0.00 | 0.00 | 0.00 | 64 | 1018.6 |
| 20260831204015 | 24 | 236 | 3.2 | 16.1 | 0.00 | 0.00 | 0.00 | 64 | 1018.7 |
| 20260831203514 | 24 | 225 | 8.0 | 16.1 | 0.00 | 0.00 | 0.00 | 63 | 1018.7 |
| 20260831203038 | 24 | 196 | 9.7 | 24.1 | 0.00 | 0.00 | 0.00 | 63 | 1018.7 |
| 20260831202517 | 24 | 178 | 9.7 | 24.1 | 0.00 | 0.00 | 0.00 | 62 | 1018.6 |
| 20260831202008 | 25 | 178 | 11.3 | 20.9 | 0.00 | 0.00 | 0.00 | 60 | 1018.6 |
| 20260831201520 | 25 | 191 | 12.9 | 27.4 | 0.00 | 0.00 | 0.00 | 58 | 1018.5 |
| 20260831201008 | 25 | 219 | 11.3 | 27.4 | 0.00 | 0.00 | 0.00 | 58 | 1018.6 |
| 20260831200511 | 25 | 215 | 11.3 | 27.4 | 0.00 | 0.00 | 0.00 | 58 | 1018.8 |
| 20260831200026 | 25 | 205 | 12.9 | 27.4 | 0.00 | 0.00 | 0.00 | 58 | 1018.7 |
| 20260831195514 | 25 | 247 | 11.3 | 27.4 | 0.00 | 0.00 | 0.00 | 58 | 1018.8 |
| 20260831195012 | 25 | 186 | 17.7 | 30.6 | 0.00 | 0.00 | 0.00 | 57 | 1018.7 |
| 20260831194529 | 26 | 219 | 11.3 | 30.6 | 0.00 | 0.00 | 0.00 | 56 | 1018.8 |
| 20260831194021 | 26 | 207 | 6.4 | 17.7 | 0.00 | 0.00 | 0.00 | 56 | 1018.8 |
| 20260831193516 | 26 | 178 | 11.3 | 17.7 | 0.00 | 0.00 | 0.00 | 57 | 1019.0 |
| 20260831193043 | 26 | 231 | 6.4 | 22.5 | 0.00 | 0.00 | 0.00 | 56 | 1019.1 |
| 20260831192516 | 26 | 212 | 12.9 | 22.5 | 0.00 | 0.00 | 0.00 | 57 | 1019.1 |
| 20260831192022 | 26 | 250 | 14.5 | 22.5 | 0.00 | 0.00 | 0.00 | 59 | 1019.1 |
| 20260831191544 | 25 | 169 | 9.7 | 19.3 | 0.00 | 0.00 | 0.00 | 60 | 1019.1 |
| 20260831191018 | 25 | 178 | 4.8 | 19.3 | 0.00 | 0.00 | 0.00 | 62 | 1019.1 |
| 20260831190510 | 25 | 133 | 4.8 | 20.9 | 0.00 | 0.00 | 0.00 | 60 | 1019.2 |
| 20260831190027 | 25 | 229 | 11.3 | 20.9 | 0.00 | 0.00 | 0.00 | 59 | 1019.3 |
| 20260831185513 | 25 | 237 | 11.3 | 19.3 | 0.00 | 0.00 | 0.00 | 61 | 1019.3 |
| 20260831185011 | 25 | 158 | 8.0 | 12.9 | 0.00 | 0.00 | 0.00 | 62 | 1019.3 |
| 20260831184528 | 24 | 187 | 6.4 | 16.1 | 0.00 | 0.00 | 0.00 | 63 | 1019.4 |
| 20260831184017 | 24 | 173 | 6.4 | 16.1 | 0.00 | 0.00 | 0.00 | 62 | 1019.4 |
| 20260831183517 | 24 | 236 | 9.7 | 14.5 | 0.00 | 0.00 | 0.00 | 60 | 1019.4 |
| 20260831183031 | 24 | 196 | 4.8 | 19.3 | 0.00 | 0.00 | 0.00 | 61 | 1019.3 |
| 20260831182514 | 24 | 241 | 8.0 | 19.3 | 0.00 | 0.00 | 0.00 | 60 | 1019.5 |
| 20260831182018 | 25 | 208 | 12.9 | 19.3 | 0.00 | 0.00 | 0.00 | 59 | 1019.5 |
| 20260831181530 | 25 | 160 | 6.4 | 16.1 | 0.00 | 0.00 | 0.00 | 61 | 1019.5 |
| 20260831181022 | 25 | 146 | 6.4 | 19.3 | 0.00 | 0.00 | 0.00 | 62 | 1019.6 |
| 20260831180522 | 25 | 175 | 11.3 | 19.3 | 0.00 | 0.00 | 0.00 | 57 | 1019.6 |
| 20260831180036 | 25 | 219 | 8.0 | 19.3 | 0.00 | 0.00 | 0.00 | 60 | 1019.6 |
| 20260831175519 | 24 | 219 | 6.4 | 20.9 | 0.00 | 0.00 | 0.00 | 58 | 1019.7 |
| 20260831175012 | 24 | 190 | 12.9 | 20.9 | 0.00 | 0.00 | 0.00 | 60 | 1019.7 |
| 20260831174526 | 24 | 227 | 6.4 | 17.7 | 0.00 | 0.00 | 0.00 | 61 | 1019.8 |
| 20260831174017 | 24 | 196 | 8.0 | 17.7 | 0.00 | 0.00 | 0.00 | 60 | 1019.9 |
| 20260831173514 | 24 | 156 | 4.8 | 16.1 | 0.00 | 0.00 | 0.00 | 63 | 1019.9 |
| 20260831173040 | 24 | 157 | 4.8 | 16.1 | 0.00 | 0.00 | 0.00 | 55 | 1019.9 |
| 20260831172515 | 24 | 189 | 8.0 | 16.1 | 0.00 | 0.00 | 0.00 | 57 | 1020.0 |
| 20260831172021 | 24 | 178 | 9.7 | 16.1 | 0.00 | 0.00 | 0.00 | 56 | 1020.0 |
| 20260831171535 | 24 | 229 | 4.8 | 11.3 | 0.00 | 0.00 | 0.00 | 55 | 1020.0 |
| 20260831171017 | 24 | 212 | 4.8 | 14.5 | 0.00 | 0.00 | 0.00 | 54 | 1020.0 |
| 20260831170523 | 25 | 254 | 3.2 | 14.5 | 0.00 | 0.00 | 0.00 | 52 | 1020.2 |
| 20260831170036 | 25 | 31 | 4.8 | 12.9 | 0.00 | 0.00 | 0.00 | 54 | 1020.3 |
| 20260831165518 | 25 | 34 | 1.6 | 8.0 | 0.00 | 0.00 | 0.00 | 57 | 1020.4 |
| 20260831165018 | 24 | 265 | 0.0 | 12.9 | 0.00 | 0.00 | 0.00 | 53 | 1020.5 |
| 20260831164525 | 24 | 137 | 3.2 | 12.9 | 0.00 | 0.00 | 0.00 | 55 | 1020.5 |
| 20260831164011 | 24 | 63 | 4.8 | 11.3 | 0.00 | 0.00 | 0.00 | 53 | 1020.6 |
| 20260831163513 | 24 | 225 | 4.8 | 11.3 | 0.00 | 0.00 | 0.00 | 52 | 1020.6 |
| 20260831163032 | 24 | 193 | 4.8 | 11.3 | 0.00 | 0.00 | 0.00 | 54 | 1020.7 |
| 20260831162518 | 23 | 9 | 1.6 | 9.7 | 0.00 | 0.00 | 0.00 | 56 | 1020.8 |
| 20260831162013 | 23 | 26 | 4.8 | 9.7 | 0.00 | 0.00 | 0.00 | 54 | 1020.7 |